Regional Weather Roundup
Issued by NWS State College, PA

Home | Current Version | Previous Version | Text Only | Print | Product List | Glossary Off
Versions: 1 2 3 4 5 6 7 8 9 10 11 12 13 14 15 16 17 18 19 20 21 22 23 24 25 26 27 28 29 30 31 32 33 34 35 36 37 38 39 40 41 42 43 44 45 46 47 48 49 50

000
ASUS41 KCTP 221210
RWRCTP

REGIONAL WEATHER ROUNDUP
NATIONAL WEATHER SERVICE STATE COLLEGE PA
800 AM EDT MON MAY 22 2017

Note: "fair" indicates few or no clouds below 12,000 feet with no
significant weather and/or obstructions to visibility.

* = STATION THAT DOES NOT REPORT PRECIPITATION /E.G. RAIN...SNOW...ETC/
    THUNDER OR FOG.

PAZ002>004-007>009-013>016-020>023-029>032-221300-
WESTERN PENNSYLVANIA

CITY           SKY/WX    TMP DP  RH WIND       PRES   REMARKS
ERIE           CLOUDY    58  49  72 SW9       29.99R
MEADVILLE      CLOUDY    57  52  83 W8        30.00R
FRANKLIN*      CLOUDY    55  52  88 NW5       30.01S
NEW CASTLE     FAIR      60  56  86 SW5       30.02R
BEAVER COUNTY  CLOUDY    59  55  88 CALM      30.02R
BUTLER*        CLOUDY    59  55  88 CALM      30.02R
PITTSBURGH INT CLOUDY    61  59  93 W12       30.02R
PITTSBURGH     LGT RAIN  61  56  83 NW9G23    30.01R
INDIANA*       NOT AVBL
LATROBE        LGT RAIN  64  63  94 SW12      30.01R
WASHINGTON CO* CLOUDY    59  55  88 W6        30.05R
$$

PAZ004>006-010>012-017>019-024>028-033>037-041-042-045-046-049>053-221300-
CENTRAL PENNSYLVANIA

CITY           SKY/WX    TMP DP  RH WIND       PRES   REMARKS
BRADFORD       LGT RAIN  55  55 100 VRB5      30.00R FOG
DUBOIS         CLOUDY    57  54  89 SE6       29.98F
CLEARFIELD     CLOUDY    55  55 100 N3        30.02S
JOHNSTOWN      CLOUDY    59  56  89 S8        30.03S
ALTOONA        CLOUDY    59  54  83 S7        30.05R
STATE COLLEGE  CLOUDY    57  52  82 SW6       30.04S
WILLIAMSPORT   CLOUDY    58  51  78 E10       30.06S
SELINSGROVE    CLOUDY    59  52  77 S6        30.08S
FT INDIANTOWN  CLOUDY    56  55  97 SE3       30.10S
CAPITAL CITY   CLOUDY    58  53  84 SE10      30.10S
HARRISBURG     CLOUDY    57  54  89 SE7       30.09S
YORK           LGT RAIN  57  56  96 CALM      30.10R
$$

PAZ038>040-043-044-047-048-054-055-060>062-067>071-221300-
EASTERN PENNSYLVANIA

CITY           SKY/WX    TMP DP  RH WIND       PRES   REMARKS
SCRANTON       CLOUDY    58  48  69 SW5       30.08F
MOUNT POCONO   CLOUDY    48  48 100 S8        30.11F
ALLENTOWN      CLOUDY    55  50  83 SE7       30.13F
QUAKERTOWN*    CLOUDY    54  54 100 CALM      30.14F
READING        CLOUDY    57  53  86 SE3       30.12R
LANCASTER      CLOUDY    56  55  97 E7        30.11S
COATESVILLE    FOG       54  54 100 E6        30.13S VSB 3/4
POTTSTOWN      CLOUDY    53  52  96 VRB3      30.14F
BLUE BELL      CLOUDY    54  54 100 CALM      30.14S
DOYLESTOWN     LGT RAIN  53  50  90 CALM      30.13F
WILLOW GROVE   NOT AVBL
NORTH PHILA    LGT RAIN  57  55  93 E7        30.15S FOG
PHILADELPHIA   CLOUDY    57  55  93 E6        30.13S
$$



USA.gov is the U.S. government's official web portal to all federal, state and local government web resources and services.